Radiation Dose at Monitoring Post of Fukushima Daini Nuclear Power Station
Date,Time,MP-1(microSv/h),MP-2(microSv/h),MP-3(microSv/h),MP-4(microSv/h),MP-5(microSv/h),MP-6(microSv/h),MP-7(microSv/h),Wind Direction,Wind Velocity(m/s),Rain
2019/01/10,00:00,0.228,0.194,0.317,0.296,0.280,0.157,0.096,northwest,1.6,No
2019/01/10,00:10,0.229,0.195,0.316,0.296,0.277,0.157,0.095,west-southwest,1.3,No
2019/01/10,00:20,0.229,0.194,0.317,0.296,0.279,0.156,0.095,-,CALM,No
2019/01/10,00:30,0.228,0.195,0.317,0.297,0.279,0.157,0.095,north-northeast,1.0,No
2019/01/10,00:40,0.228,0.195,0.317,0.297,0.278,0.157,0.096,west-northwest,0.6,No
2019/01/10,00:50,0.227,0.195,0.317,0.296,0.279,0.158,0.096,-,CALM,No
2019/01/10,01:00,0.227,0.195,0.317,0.297,0.278,0.157,0.096,-,CALM,No
2019/01/10,01:10,0.228,0.196,0.317,0.295,0.279,0.157,0.095,-,CALM,No
2019/01/10,01:20,0.228,0.196,0.317,0.296,0.279,0.157,0.095,-,CALM,No
2019/01/10,01:30,0.229,0.195,0.317,0.296,0.278,0.156,0.096,-,CALM,No
2019/01/10,01:40,0.228,0.195,0.317,0.296,0.278,0.157,0.096,-,CALM,No
2019/01/10,01:50,0.228,0.195,0.318,0.298,0.279,0.158,0.095,west,1.6,No
2019/01/10,02:00,0.228,0.196,0.317,0.295,0.278,0.157,0.096,west-northwest,2.0,No
2019/01/10,02:10,0.228,0.194,0.317,0.297,0.278,0.157,0.095,north-northwest,2.0,No
2019/01/10,02:20,0.227,0.195,0.318,0.296,0.278,0.158,0.096,northwest,1.7,No
2019/01/10,02:30,0.227,0.195,0.318,0.297,0.279,0.157,0.095,north-northwest,1.6,No
2019/01/10,02:40,0.228,0.196,0.317,0.297,0.278,0.157,0.094,north-northwest,2.8,No
2019/01/10,02:50,0.228,0.195,0.317,0.297,0.278,0.157,0.095,north-northwest,4.2,No
2019/01/10,03:00,0.229,0.196,0.317,0.295,0.279,0.157,0.097,west-northwest,3.1,No
2019/01/10,03:10,0.228,0.195,0.316,0.296,0.279,0.157,0.095,west,2.7,No
2019/01/10,03:20,0.228,0.194,0.316,0.297,0.278,0.157,0.096,west,2.7,No
2019/01/10,03:30,0.228,0.195,0.317,0.296,0.280,0.158,0.095,west-northwest,3.1,No
2019/01/10,03:40,0.228,0.194,0.317,0.296,0.278,0.156,0.095,west-northwest,2.7,No
2019/01/10,03:50,0.228,0.195,0.317,0.296,0.279,0.157,0.096,west-northwest,2.6,No
2019/01/10,04:00,0.227,0.195,0.317,0.297,0.277,0.157,0.095,west-northwest,2.3,No
2019/01/10,04:10,0.228,0.195,0.318,0.296,0.278,0.156,0.096,northwest,2.1,No
2019/01/10,04:20,0.227,0.195,0.317,0.297,0.279,0.157,0.096,west-northwest,2.7,No
2019/01/10,04:30,0.227,0.195,0.316,0.296,0.279,0.156,0.095,west-northwest,3.9,No
2019/01/10,04:40,0.227,0.195,0.316,0.297,0.277,0.157,0.095,northwest,4.2,No
2019/01/10,04:50,0.228,0.195,0.318,0.297,0.278,0.156,0.096,northwest,5.1,No
2019/01/10,05:00,0.227,0.194,0.316,0.296,0.278,0.156,0.095,northwest,4.9,No
2019/01/10,05:10,0.228,0.195,0.316,0.297,0.277,0.156,0.096,northwest,5.9,No
2019/01/10,05:20,0.228,0.195,0.317,0.296,0.278,0.157,0.095,northwest,4.4,No
2019/01/10,05:30,0.229,0.195,0.317,0.295,0.278,0.157,0.095,northwest,4.7,No
2019/01/10,05:40,0.227,0.196,0.317,0.295,0.279,0.156,0.096,northwest,5.9,No
2019/01/10,05:50,0.228,0.194,0.318,0.295,0.278,0.157,0.096,west-northwest,5.0,No
2019/01/10,06:00,0.227,0.196,0.316,0.296,0.278,0.157,0.095,west-northwest,4.5,No
2019/01/10,06:10,0.227,0.195,0.316,0.296,0.279,0.156,0.095,west-northwest,3.4,No
2019/01/10,06:20,0.227,0.195,0.316,0.296,0.278,0.157,0.095,west-northwest,3.1,No
2019/01/10,06:30,0.228,0.196,0.317,0.295,0.278,0.157,0.095,west,3.1,No
2019/01/10,06:40,0.228,0.194,0.317,0.295,0.278,0.157,0.095,west-northwest,2.5,No
2019/01/10,06:50,0.226,0.195,0.317,0.295,0.277,0.156,0.095,west-northwest,2.7,No
2019/01/10,07:00,0.227,0.195,0.316,0.295,0.279,0.156,0.095,west,2.8,No
2019/01/10,07:10,0.227,0.194,0.316,0.295,0.279,0.156,0.095,west,4.5,No
2019/01/10,07:20,0.228,0.195,0.317,0.297,0.279,0.157,0.096,west-northwest,5.5,No
2019/01/10,07:30,0.228,0.196,0.315,0.296,0.277,0.157,0.095,west,4.4,No
2019/01/10,07:40,0.228,0.195,0.316,0.295,0.277,0.157,0.095,west,4.0,No
2019/01/10,07:50,0.228,0.195,0.318,0.295,0.278,0.156,0.095,west,5.0,No
2019/01/10,08:00,0.227,0.195,0.316,0.294,0.278,0.156,0.095,west-northwest,4.9,No
2019/01/10,08:10,0.228,0.196,0.315,0.295,0.277,0.156,0.095,west,7.9,No
2019/01/10,08:20,0.226,0.193,0.315,0.294,0.278,0.157,0.095,west,10.9,No
2019/01/10,08:30,0.227,0.194,0.317,0.295,0.278,0.156,0.095,west-northwest,11.8,No
2019/01/10,08:40,0.227,0.193,0.314,0.294,0.279,0.157,0.095,west-northwest,12.8,No
2019/01/10,08:50,0.226,0.194,0.315,0.295,0.278,0.156,0.095,west-northwest,10.8,No
2019/01/10,09:00,0.227,0.193,0.316,0.296,0.279,0.156,0.095,northwest,6.2,No
2019/01/10,09:10,0.228,0.194,0.317,0.296,0.282,0.156,0.094,west,4.8,No
2019/01/10,09:20,0.228,0.195,0.317,0.297,0.279,0.156,0.094,west,9.2,No
2019/01/10,09:30,0.228,0.195,0.317,0.293,0.279,0.156,0.094,west,7.5,No
2019/01/10,09:40,0.228,0.194,0.315,0.295,0.279,0.157,0.095,west,6.0,No
2019/01/10,09:50,0.226,0.195,0.317,0.295,0.281,0.157,0.094,west,7.4,No
2019/01/10,10:00,0.227,0.194,0.317,0.296,0.278,0.157,0.094,west,9.2,No
2019/01/10,10:10,0.227,0.195,0.316,0.296,0.281,0.157,0.095,west,8.1,No
2019/01/10,10:20,0.227,0.195,0.317,0.295,0.278,0.156,0.095,west,5.2,No
2019/01/10,10:30,0.229,0.195,0.316,0.294,0.279,0.156,0.094,west-southwest,3.4,No
2019/01/10,10:40,0.227,0.194,0.315,0.295,0.282,0.156,0.095,southwest,2.7,No
2019/01/10,10:50,0.226,0.195,0.317,0.295,0.279,0.157,0.095,west-southwest,2.5,No
2019/01/10,11:00,0.227,0.194,0.316,0.296,0.279,0.156,0.095,west-southwest,2.0,No
2019/01/10,11:10,0.226,0.195,0.315,0.297,0.280,0.157,0.095,west,4.4,No
2019/01/10,11:20,0.226,0.195,0.316,0.296,0.279,0.157,0.096,west-northwest,4.5,No
2019/01/10,11:30,0.227,0.196,0.316,0.295,0.279,0.157,0.094,west-northwest,3.0,No
2019/01/10,11:40,0.226,0.194,0.315,0.296,0.279,0.157,0.094,west-northwest,1.7,No
2019/01/10,11:50,0.228,0.194,0.315,0.295,0.278,0.156,0.095,west,1.0,No
2019/01/10,12:00,0.228,0.194,0.316,0.295,0.281,0.156,0.095,west-southwest,1.7,No
2019/01/10,12:10,0.226,0.194,0.315,0.296,0.279,0.157,0.095,west-southwest,2.7,No
2019/01/10,12:20,0.227,0.194,0.316,0.295,0.280,0.157,0.095,west-southwest,1.9,No
2019/01/10,12:30,0.227,0.196,0.314,0.296,0.280,0.157,0.095,south-southwest,1.1,No
2019/01/10,12:40,0.227,0.194,0.315,0.296,0.277,0.157,0.094,south-southwest,1.1,No
2019/01/10,12:50,0.228,0.194,0.315,0.295,0.280,0.158,0.095,southwest,1.1,No
2019/01/10,13:00,0.226,0.195,0.315,0.297,0.279,0.157,0.095,southwest,1.4,No
2019/01/10,13:10,0.226,0.195,0.315,0.296,0.278,0.158,0.095,southeast,0.7,No
2019/01/10,13:20,0.228,0.195,0.316,0.295,0.279,0.157,0.095,west,1.1,No
2019/01/10,13:30,0.227,0.194,0.315,0.296,0.279,0.158,0.096,southwest,1.1,No
2019/01/10,13:40,0.227,0.195,0.315,0.297,0.281,0.157,0.095,southwest,1.5,No
2019/01/10,13:50,0.227,0.195,0.316,0.296,0.280,0.158,0.096,south-southwest,2.2,No
2019/01/10,14:00,0.227,0.194,0.316,0.297,0.276,0.158,0.095,south-southwest,1.8,No
2019/01/10,14:10,0.229,0.196,0.316,0.296,0.280,0.158,0.095,south-southwest,2.3,No
2019/01/10,14:20,0.227,0.195,0.316,0.294,0.279,0.158,0.094,south-southwest,1.5,No
2019/01/10,14:30,0.227,0.194,0.316,0.295,0.280,0.158,0.095,south-southwest,1.6,No
2019/01/10,14:40,0.227,0.195,0.315,0.296,0.281,0.157,0.095,south-southwest,1.3,No
2019/01/10,14:50,0.228,0.195,0.317,0.294,0.279,0.157,0.095,southwest,2.2,No
2019/01/10,15:00,0.227,0.194,0.315,0.297,0.281,0.158,0.096,south-southwest,1.1,No
2019/01/10,15:10,0.228,0.195,0.317,0.297,0.279,0.157,0.095,southwest,2.2,No
2019/01/10,15:20,0.226,0.193,0.317,0.296,0.280,0.157,0.095,southwest,2.7,No
2019/01/10,15:30,0.227,0.195,0.315,0.297,0.278,0.158,0.095,west-northwest,1.4,No
2019/01/10,15:40,0.226,0.196,0.315,0.297,0.280,0.158,0.095,west,4.1,No
2019/01/10,15:50,0.227,0.196,0.316,0.297,0.279,0.157,0.095,west-northwest,4.3,No
2019/01/10,16:00,0.227,0.194,0.316,0.295,0.279,0.158,0.094,west-southwest,1.8,No
2019/01/10,16:10,0.227,0.195,0.315,0.297,0.280,0.158,0.094,south-southeast,0.9,No
2019/01/10,16:20,0.228,0.196,0.317,0.296,0.279,0.157,0.094,south,1.8,No
2019/01/10,16:30,0.227,0.194,0.316,0.296,0.280,0.158,0.095,southwest,2.1,No
2019/01/10,16:40,0.227,0.196,0.315,0.296,0.279,0.157,0.095,southwest,1.8,No
2019/01/10,16:50,0.227,0.195,0.317,0.297,0.279,0.158,0.095,west-southwest,2.1,No
2019/01/10,17:00,0.227,0.195,0.318,0.296,0.279,0.158,0.094,west,1.3,No
2019/01/10,17:10,0.227,0.195,0.316,0.296,0.279,0.157,0.095,west-northwest,1.0,No
2019/01/10,17:20,0.226,0.196,0.316,0.298,0.278,0.157,0.095,west,0.9,No
2019/01/10,17:30,0.226,0.195,0.318,0.296,0.278,0.157,0.096,west-northwest,2.8,No
2019/01/10,17:40,0.227,0.195,0.318,0.295,0.279,0.158,0.096,west,2.8,No
2019/01/10,17:50,0.228,0.196,0.318,0.297,0.279,0.157,0.095,-,CALM,No
2019/01/10,18:00,0.227,0.196,0.317,0.297,0.278,0.157,0.095,south-southeast,1.2,No
2019/01/10,18:10,0.227,0.194,0.316,0.297,0.280,0.157,0.096,south-southwest,1.7,No
2019/01/10,18:20,0.228,0.195,0.316,0.295,0.279,0.158,0.095,south-southwest,2.4,No
2019/01/10,18:30,0.227,0.194,0.316,0.297,0.278,0.157,0.095,-,CALM,No
2019/01/10,18:40,0.227,0.195,0.318,0.297,0.279,0.158,0.095,west,2.3,No
2019/01/10,18:50,0.227,0.195,0.316,0.295,0.280,0.158,0.095,west,4.1,No
2019/01/10,19:00,0.226,0.194,0.316,0.296,0.278,0.158,0.096,west-northwest,3.3,No
2019/01/10,19:10,0.228,0.194,0.317,0.297,0.279,0.158,0.095,west-northwest,4.1,No
2019/01/10,19:20,0.226,0.195,0.318,0.297,0.281,0.158,0.095,west,0.6,No
2019/01/10,19:30,0.228,0.195,0.315,0.296,0.279,0.157,0.095,-,CALM,No
2019/01/10,19:40,0.226,0.195,0.317,0.298,0.279,0.156,0.095,west-southwest,2.3,No
2019/01/10,19:50,0.228,0.195,0.317,0.297,0.280,0.157,0.095,southwest,3.4,No
2019/01/10,20:00,0.227,0.195,0.317,0.297,0.280,0.158,0.095,west-southwest,4.5,No
2019/01/10,20:10,0.226,0.197,0.316,0.297,0.281,0.157,0.095,west,2.2,No
2019/01/10,20:20,0.227,0.196,0.317,0.297,0.279,0.158,0.096,southwest,1.7,No
2019/01/10,20:30,0.226,0.195,0.316,0.296,0.280,0.157,0.096,south-southeast,2.4,No
2019/01/10,20:40,0.227,0.195,0.317,0.297,0.280,0.157,0.095,south,3.0,No
2019/01/10,20:50,0.228,0.195,0.316,0.296,0.279,0.157,0.095,south,4.0,No
2019/01/10,21:00,0.228,0.197,0.317,0.298,0.280,0.158,0.096,south-southeast,5.0,No
2019/01/10,21:10,0.228,0.195,0.317,0.296,0.279,0.159,0.095,south-southwest,3.0,No
2019/01/10,21:20,0.227,0.195,0.315,0.296,0.278,0.158,0.095,west,1.9,No
2019/01/10,21:30,0.227,0.195,0.316,0.297,0.278,0.157,0.094,southeast,1.8,No
2019/01/10,21:40,0.226,0.195,0.317,0.296,0.280,0.157,0.096,south-southwest,1.9,No
2019/01/10,21:50,0.227,0.196,0.317,0.297,0.279,0.157,0.095,south-southwest,2.8,No
2019/01/10,22:00,0.228,0.195,0.318,0.297,0.279,0.158,0.095,southwest,4.0,No
2019/01/10,22:10,0.228,0.195,0.316,0.297,0.278,0.157,0.094,west-southwest,4.0,No
2019/01/10,22:20,0.227,0.195,0.317,0.298,0.279,0.157,0.096,southwest,2.1,No
2019/01/10,22:30,0.227,0.195,0.317,0.297,0.279,0.158,0.095,southwest,2.2,No
2019/01/10,22:40,0.229,0.196,0.316,0.298,0.280,0.158,0.096,south-southwest,2.4,No
2019/01/10,22:50,0.227,0.196,0.317,0.298,0.280,0.157,0.095,south-southwest,4.5,No
2019/01/10,23:00,0.227,0.195,0.316,0.298,0.279,0.157,0.095,southwest,6.1,No
2019/01/10,23:10,0.227,0.195,0.316,0.297,0.279,0.157,0.095,southwest,2.8,No
2019/01/10,23:20,0.228,0.196,0.316,0.296,0.281,0.158,0.095,south-southeast,2.8,No
2019/01/10,23:30,0.228,0.195,0.317,0.297,0.278,0.158,0.095,south-southeast,4.3,No
2019/01/10,23:40,0.227,0.195,0.319,0.297,0.278,0.157,0.096,south,4.1,No
2019/01/10,23:50,0.228,0.196,0.316,0.297,0.278,0.157,0.096,southeast,2.6,No
